GTI4605 LROP-EPKK

Flight info

Callsign GTI4605
Flight time 1h 12m
Altitude 38000
Route SOKRU DCT LARMU DCT KENIN DCT LENOV DCT UMTAH DCT ENNAW DCT UMJUZ DCT KK661 DCT KK659 DCT KK658 DCT BAWZI DCT OFFUK DCT KK362
Aircraft B742/H-SDFHIRWXY/L

Departure

Time 2026-05-06 19:00
Airport Bucharest Henri Coandă International Airport (LROP)

Arrival

Time 2026-05-06 20:12
Airport Kraków John Paul II International Airport (EPKK)
Time Latitude Longitude Altitude Speed Heading
2026-05-06 18:16 44.56926 26.09524 313 ft 0 kts 175°
2026-05-06 18:47 44.56927 26.09524 312 ft 1 kts 175°
2026-05-06 18:47 44.56942 26.09522 312 ft 2 kts 180°
2026-05-06 18:47 44.56958 26.09526 312 ft 2 kts 199°
2026-05-06 18:48 44.56972 26.09535 312 ft 2 kts 215°
2026-05-06 18:48 44.56983 26.09550 312 ft 2 kts 231°
2026-05-06 18:48 44.56992 26.09568 312 ft 2 kts 247°
2026-05-06 18:48 44.56996 26.09588 312 ft 1 kts 262°
2026-05-06 18:49 44.56997 26.09595 312 ft 1 kts 261°
2026-05-06 18:49 44.56998 26.09605 312 ft 1 kts 262°
2026-05-06 18:49 44.56999 26.09614 312 ft 0 kts 263°
2026-05-06 18:52 44.56994 26.09562 312 ft 10 kts 263°
2026-05-06 18:53 44.56984 26.09436 312 ft 14 kts 263°
2026-05-06 18:53 44.56971 26.09275 311 ft 18 kts 264°
2026-05-06 18:53 44.56956 26.09077 309 ft 20 kts 264°
2026-05-06 18:53 44.56941 26.08870 309 ft 21 kts 264°
2026-05-06 18:54 44.56928 26.08709 310 ft 12 kts 264°
2026-05-06 18:54 44.56924 26.08592 311 ft 11 kts 285°
2026-05-06 18:54 44.56986 26.08540 312 ft 10 kts 352°
2026-05-06 18:54 44.57056 26.08528 313 ft 9 kts 354°
2026-05-06 18:55 44.57119 26.08519 315 ft 8 kts 354°
2026-05-06 18:55 44.57180 26.08511 315 ft 9 kts 354°
2026-05-06 18:55 44.57254 26.08500 316 ft 11 kts 354°
2026-05-06 18:55 44.57346 26.08486 316 ft 14 kts 354°
2026-05-06 18:56 44.57442 26.08473 316 ft 9 kts 354°
2026-05-06 18:56 44.57490 26.08467 316 ft 0 kts 355°
2026-05-06 18:58 44.57491 26.08467 316 ft 0 kts 354°
2026-05-06 18:58 44.57511 26.08464 316 ft 5 kts 354°
2026-05-06 18:58 44.57565 26.08456 316 ft 10 kts 354°
2026-05-06 18:59 44.57646 26.08461 316 ft 11 kts 40°
2026-05-06 18:59 44.57666 26.08524 316 ft 0 kts 77°
2026-05-06 18:59 44.57666 26.08525 316 ft 0 kts 77°
2026-05-06 18:59 44.57688 26.08736 316 ft 63 kts 86°
2026-05-06 19:00 44.57759 26.09812 320 ft 150 kts 84°
2026-05-06 19:00 44.57899 26.11543 527 ft 199 kts 83°
2026-05-06 19:00 44.58063 26.13556 1346 ft 213 kts 84°
2026-05-06 19:00 44.58221 26.15570 2669 ft 205 kts 84°
2026-05-06 19:01 44.58347 26.17789 2793 ft 256 kts 88°
2026-05-06 19:01 44.58355 26.20387 3624 ft 267 kts 90°
2026-05-06 19:01 44.58374 26.23035 4708 ft 271 kts 89°
2026-05-06 19:01 44.58425 26.25673 5878 ft 269 kts 88°
2026-05-06 19:02 44.58488 26.28252 7206 ft 259 kts 88°
2026-05-06 19:02 44.58733 26.30737 8337 ft 254 kts 67°
2026-05-06 19:02 44.59822 26.32714 9108 ft 264 kts 35°
2026-05-06 19:02 44.61602 26.33627 9834 ft 276 kts
2026-05-06 19:03 44.63542 26.33163 10585 ft 283 kts 341°
2026-05-06 19:03 44.65384 26.32100 11397 ft 287 kts 331°
2026-05-06 19:03 44.67051 26.30477 12211 ft 290 kts 318°
2026-05-06 19:03 44.68389 26.28325 13014 ft 292 kts 307°
2026-05-06 19:04 44.69595 26.26019 13826 ft 294 kts 306°
2026-05-06 19:04 44.70761 26.23626 14626 ft 296 kts 301°
2026-05-06 19:04 44.71803 26.21081 15427 ft 297 kts 299°
2026-05-06 19:04 44.72765 26.18661 16165 ft 298 kts 298°
2026-05-06 19:05 44.73769 26.16133 16889 ft 300 kts 298°
2026-05-06 19:05 44.74753 26.13666 17533 ft 302 kts 298°
2026-05-06 19:05 44.75753 26.11170 18154 ft 306 kts 298°
2026-05-06 19:05 44.76727 26.08752 18732 ft 308 kts 298°
2026-05-06 19:06 44.77667 26.06426 19285 ft 311 kts 298°
2026-05-06 19:06 44.78598 26.04127 19811 ft 313 kts 298°
2026-05-06 19:06 44.79739 26.01327 20422 ft 316 kts 298°
2026-05-06 19:06 44.80845 25.98623 20986 ft 319 kts 298°
2026-05-06 19:07 44.81947 25.95939 21570 ft 321 kts 299°
2026-05-06 19:07 44.83094 25.93149 22119 ft 324 kts 298°
2026-05-06 19:07 44.84228 25.90373 22664 ft 327 kts 298°
2026-05-06 19:07 44.85349 25.87665 23187 ft 329 kts 299°
2026-05-06 19:08 44.86465 25.84982 23707 ft 331 kts 299°
2026-05-06 19:08 44.87519 25.82370 24176 ft 333 kts 297°
2026-05-06 19:08 44.88660 25.79450 24722 ft 335 kts 297°
2026-05-06 19:08 44.89789 25.76543 25316 ft 338 kts 296°
2026-05-06 19:09 44.90882 25.73598 25929 ft 340 kts 295°
2026-05-06 19:09 44.91896 25.70717 26458 ft 342 kts 292°
2026-05-06 19:09 44.92815 25.67800 27004 ft 345 kts 291°
2026-05-06 19:09 44.93753 25.64713 27372 ft 354 kts 291°
2026-05-06 19:10 44.94625 25.61810 27714 ft 362 kts 291°
2026-05-06 19:10 44.95641 25.58418 27964 ft 376 kts 291°
2026-05-06 19:10 44.96654 25.55033 28025 ft 396 kts 291°
2026-05-06 19:10 44.97661 25.51643 28039 ft 416 kts 291°
2026-05-06 19:11 44.98813 25.47762 28038 ft 439 kts 291°
2026-05-06 19:11 44.99929 25.43996 28041 ft 460 kts 291°
2026-05-06 19:11 45.01261 25.39500 28038 ft 486 kts 291°
2026-05-06 19:11 45.02573 25.35062 28080 ft 509 kts 291°
2026-05-06 19:12 45.04007 25.30345 28770 ft 518 kts 294°
2026-05-06 19:12 45.05882 25.26038 29701 ft 524 kts 304°
2026-05-06 19:12 45.08357 25.22250 30596 ft 528 kts 317°
2026-05-06 19:12 45.12198 25.18191 31873 ft 497 kts 323°
2026-05-06 19:13 45.14110 25.16432 32060 ft 485 kts 324°
2026-05-06 19:13 45.17003 25.13871 31774 ft 495 kts 325°
2026-05-06 19:13 45.19925 25.11326 32113 ft 499 kts 325°
2026-05-06 19:13 45.22877 25.08776 32381 ft 503 kts 326°
2026-05-06 19:14 45.25877 25.06196 32734 ft 505 kts 326°
2026-05-06 19:14 45.28870 25.03629 32960 ft 510 kts 326°
2026-05-06 19:14 45.31943 25.01003 33296 ft 512 kts 326°
2026-05-06 19:14 45.34983 24.98400 33576 ft 516 kts 326°
2026-05-06 19:15 45.38080 24.95751 33951 ft 517 kts 326°
2026-05-06 19:15 45.41144 24.93135 34209 ft 520 kts 326°
2026-05-06 19:15 45.44242 24.90493 34468 ft 523 kts 326°
2026-05-06 19:15 45.47365 24.87818 34819 ft 511 kts 325°
2026-05-06 19:16 45.50287 24.85214 35165 ft 489 kts 324°
2026-05-06 19:16 45.53092 24.82672 35514 ft 478 kts 324°
2026-05-06 19:16 45.55883 24.80132 35809 ft 477 kts 324°
2026-05-06 19:16 45.58665 24.77599 36062 ft 479 kts 324°
2026-05-06 19:17 45.61488 24.75023 36318 ft 480 kts 324°
2026-05-06 19:17 45.64286 24.72464 36571 ft 481 kts 324°
2026-05-06 19:17 45.66562 24.70381 36776 ft 482 kts 324°
2026-05-06 19:17 45.69861 24.67360 37072 ft 483 kts 324°
2026-05-06 19:18 45.72680 24.64780 37326 ft 483 kts 324°
2026-05-06 19:18 45.75484 24.62215 37576 ft 483 kts 324°
2026-05-06 19:18 45.78307 24.59633 37819 ft 483 kts 324°
2026-05-06 19:18 45.81158 24.57018 37983 ft 485 kts 324°
2026-05-06 19:19 45.83994 24.54410 38023 ft 489 kts 324°
2026-05-06 19:19 45.89719 24.49140 38035 ft 497 kts 324°
2026-05-06 19:20 45.95581 24.43719 38032 ft 503 kts 324°
2026-05-06 19:20 46.01349 24.38363 38033 ft 509 kts 324°
2026-05-06 19:21 46.07258 24.32870 38032 ft 513 kts 323°
2026-05-06 19:21 46.13078 24.27455 38030 ft 508 kts 323°
2026-05-06 19:22 46.18868 24.22073 38032 ft 503 kts 323°
2026-05-06 19:22 46.24744 24.16602 38033 ft 504 kts 323°
2026-05-06 19:23 46.30604 24.11144 38032 ft 506 kts 324°
2026-05-06 19:23 46.36518 24.05622 38031 ft 505 kts 323°
2026-05-06 19:24 46.42322 23.99845 38031 ft 503 kts 320°
2026-05-06 19:24 46.47925 23.93810 38032 ft 504 kts 320°
2026-05-06 19:25 46.53517 23.87728 38033 ft 504 kts 320°
2026-05-06 19:25 46.59082 23.81669 38033 ft 503 kts 320°
2026-05-06 19:26 46.64671 23.75580 38031 ft 503 kts 320°
2026-05-06 19:26 46.70262 23.69493 38030 ft 504 kts 320°
2026-05-06 19:27 46.75884 23.63358 38030 ft 503 kts 320°
2026-05-06 19:27 46.81479 23.57249 38032 ft 504 kts 320°
2026-05-06 19:28 46.87231 23.51449 38033 ft 506 kts 323°
2026-05-06 19:28 46.93136 23.45819 38032 ft 506 kts 324°
2026-05-06 19:29 46.98976 23.40146 38033 ft 508 kts 324°
2026-05-06 19:29 47.04745 23.34384 38032 ft 509 kts 323°
2026-05-06 19:30 47.10512 23.28340 38032 ft 508 kts 322°
2026-05-06 19:30 47.16205 23.22281 38032 ft 508 kts 322°
2026-05-06 19:31 47.21934 23.16171 38032 ft 508 kts 322°
2026-05-06 19:31 47.30506 23.07030 38032 ft 508 kts 322°
2026-05-06 19:32 47.36227 23.00913 38033 ft 508 kts 322°
2026-05-06 19:32 47.41911 22.94858 38033 ft 499 kts 322°
2026-05-06 19:33 47.47468 22.88933 38032 ft 489 kts 323°
2026-05-06 19:33 47.52903 22.83026 38031 ft 482 kts 323°
2026-05-06 19:34 47.58234 22.77019 38031 ft 479 kts 323°
2026-05-06 19:34 47.63518 22.70936 37947 ft 482 kts 323°
2026-05-06 19:35 47.68779 22.64868 37944 ft 481 kts 323°
2026-05-06 19:35 47.74071 22.58746 37942 ft 481 kts 323°
2026-05-06 19:36 47.79349 22.52680 37944 ft 481 kts 324°
2026-05-06 19:36 47.84611 22.46894 37943 ft 481 kts 325°
2026-05-06 19:37 47.90095 22.40998 37939 ft 481 kts 325°
2026-05-06 19:37 47.95514 22.35172 37929 ft 481 kts 325°
2026-05-06 19:38 48.00923 22.29348 37917 ft 481 kts 324°
2026-05-06 19:38 48.06292 22.23557 37914 ft 481 kts 324°
2026-05-06 19:39 48.11613 22.17807 37872 ft 482 kts 324°
2026-05-06 19:39 48.14315 22.14887 37654 ft 484 kts 324°
2026-05-06 19:39 48.17023 22.11960 37245 ft 483 kts 324°
2026-05-06 19:40 48.19719 22.09044 36841 ft 476 kts 324°
2026-05-06 19:40 48.22385 22.06154 36463 ft 469 kts 324°
2026-05-06 19:40 48.25013 22.03306 36110 ft 462 kts 324°
2026-05-06 19:40 48.27598 22.00505 35766 ft 458 kts 324°
2026-05-06 19:41 48.30187 21.97697 35347 ft 457 kts 324°
2026-05-06 19:41 48.32710 21.94954 34928 ft 453 kts 324°
2026-05-06 19:41 48.35267 21.92170 34456 ft 449 kts 324°
2026-05-06 19:41 48.37768 21.89446 33960 ft 446 kts 324°
2026-05-06 19:42 48.40279 21.86728 33458 ft 442 kts 325°
2026-05-06 19:42 48.42791 21.84074 32957 ft 439 kts 326°
2026-05-06 19:42 48.45286 21.81460 32458 ft 436 kts 326°
2026-05-06 19:42 48.47765 21.78872 31959 ft 432 kts 326°
2026-05-06 19:43 48.50209 21.76323 31463 ft 429 kts 326°
2026-05-06 19:43 48.52678 21.73752 30958 ft 426 kts 326°
2026-05-06 19:43 48.55114 21.71218 30412 ft 423 kts 326°
2026-05-06 19:43 48.57503 21.68734 29852 ft 415 kts 326°
2026-05-06 19:44 48.59831 21.66314 29296 ft 408 kts 326°
2026-05-06 19:44 48.62167 21.63893 28729 ft 401 kts 326°
2026-05-06 19:44 48.64451 21.61527 28166 ft 394 kts 326°
2026-05-06 19:44 48.66678 21.59233 27608 ft 388 kts 327°
2026-05-06 19:45 48.68930 21.57027 27044 ft 382 kts 328°
2026-05-06 19:45 48.71155 21.54892 26482 ft 376 kts 328°
2026-05-06 19:45 48.73380 21.52775 25912 ft 370 kts 328°
2026-05-06 19:45 48.75520 21.50739 25355 ft 364 kts 328°
2026-05-06 19:46 48.77669 21.48695 24786 ft 358 kts 328°
2026-05-06 19:46 48.79754 21.46716 24226 ft 353 kts 328°
2026-05-06 19:46 48.81870 21.44806 23629 ft 352 kts 330°
2026-05-06 19:46 48.83964 21.42968 23009 ft 349 kts 330°
2026-05-06 19:47 48.86068 21.41132 22380 ft 345 kts 330°
2026-05-06 19:47 48.88155 21.39313 21751 ft 342 kts 330°
2026-05-06 19:47 48.90214 21.37519 21125 ft 340 kts 330°
2026-05-06 19:47 48.92268 21.35731 20496 ft 337 kts 330°
2026-05-06 19:48 48.94298 21.33963 19870 ft 335 kts 329°
2026-05-06 19:48 48.96328 21.32192 19239 ft 332 kts 329°
2026-05-06 19:48 48.98313 21.30464 18617 ft 330 kts 329°
2026-05-06 19:48 49.00319 21.28729 17986 ft 327 kts 329°
2026-05-06 19:49 49.02285 21.27041 17363 ft 325 kts 329°
2026-05-06 19:49 49.04250 21.25367 16828 ft 320 kts 329°
2026-05-06 19:49 49.06210 21.23708 16446 ft 320 kts 329°
2026-05-06 19:49 49.08154 21.22073 16094 ft 320 kts 329°
2026-05-06 19:50 49.10133 21.20422 15929 ft 318 kts 329°
2026-05-06 19:50 49.12103 21.18789 15893 ft 320 kts 329°
2026-05-06 19:50 49.14063 21.17172 15886 ft 322 kts 329°
2026-05-06 19:50 49.16051 21.15532 15885 ft 322 kts 329°
2026-05-06 19:51 49.18015 21.13913 15884 ft 322 kts 329°
2026-05-06 19:51 49.19999 21.12277 15884 ft 322 kts 329°
2026-05-06 19:51 49.21993 21.10632 15884 ft 322 kts 329°
2026-05-06 19:51 49.23980 21.08996 15885 ft 322 kts 329°
2026-05-06 19:52 49.25950 21.07380 15887 ft 322 kts 329°
2026-05-06 19:52 49.27949 21.05746 15889 ft 322 kts 329°
2026-05-06 19:52 49.29926 21.04135 15892 ft 323 kts 329°
2026-05-06 19:52 49.31927 21.02510 15867 ft 324 kts 329°
2026-05-06 19:53 49.33935 21.00884 15503 ft 327 kts 330°
2026-05-06 19:53 49.35984 20.99347 15029 ft 322 kts 332°
2026-05-06 19:53 49.38020 20.97900 14557 ft 319 kts 332°
2026-05-06 19:53 49.39999 20.96357 14087 ft 317 kts 328°
2026-05-06 19:54 49.41904 20.94626 13614 ft 315 kts 324°
2026-05-06 19:54 49.43753 20.92774 13141 ft 314 kts 324°
2026-05-06 19:54 49.45572 20.90926 12671 ft 312 kts 323°
2026-05-06 19:54 49.47385 20.89082 12201 ft 311 kts 323°
2026-05-06 19:55 49.49197 20.87238 11729 ft 310 kts 323°
2026-05-06 19:55 49.50977 20.85426 11263 ft 307 kts 324°
2026-05-06 19:55 49.52745 20.83622 10842 ft 304 kts 324°
2026-05-06 19:55 49.54533 20.81787 10448 ft 294 kts 322°
2026-05-06 19:56 49.56191 20.79946 10100 ft 289 kts 321°
2026-05-06 19:56 49.57831 20.78073 9955 ft 286 kts 321°
2026-05-06 19:56 49.59448 20.76221 9923 ft 288 kts 321°
2026-05-06 19:56 49.61081 20.74345 9916 ft 288 kts 321°
2026-05-06 19:57 49.62724 20.72458 9914 ft 288 kts 321°
2026-05-06 19:57 49.64355 20.70584 9914 ft 289 kts 321°
2026-05-06 19:57 49.66002 20.68691 9914 ft 289 kts 321°
2026-05-06 19:57 49.67664 20.66779 9914 ft 289 kts 321°
2026-05-06 19:58 49.69319 20.64896 9914 ft 289 kts 322°
2026-05-06 19:58 49.70975 20.63053 9913 ft 289 kts 322°
2026-05-06 19:58 49.72615 20.61231 9908 ft 288 kts 322°
2026-05-06 19:58 49.74266 20.59396 9901 ft 288 kts 322°
2026-05-06 19:59 49.75922 20.57552 9891 ft 287 kts 322°
2026-05-06 19:59 49.77594 20.55688 9878 ft 287 kts 322°
2026-05-06 19:59 49.79228 20.53861 9862 ft 286 kts 322°
2026-05-06 19:59 49.80870 20.52020 9848 ft 286 kts 322°
2026-05-06 20:00 49.82513 20.50174 9835 ft 285 kts 322°
2026-05-06 20:00 49.84154 20.48326 9824 ft 285 kts 322°
2026-05-06 20:00 49.85783 20.46488 9814 ft 284 kts 322°
2026-05-06 20:00 49.87435 20.44620 9792 ft 285 kts 322°
2026-05-06 20:01 49.89063 20.42776 9607 ft 284 kts 322°
2026-05-06 20:01 49.90681 20.40936 9252 ft 283 kts 322°
2026-05-06 20:01 49.92271 20.39119 8888 ft 279 kts 322°
2026-05-06 20:01 49.93872 20.37276 8517 ft 277 kts 322°
2026-05-06 20:02 49.95411 20.35405 8061 ft 276 kts 320°
2026-05-06 20:02 49.96905 20.33531 7667 ft 274 kts 319°
2026-05-06 20:02 49.98421 20.31609 7133 ft 271 kts 319°
2026-05-06 20:02 49.99878 20.29747 6611 ft 261 kts 319°
2026-05-06 20:03 50.01277 20.27942 6095 ft 254 kts 319°
2026-05-06 20:03 50.02618 20.26202 5713 ft 243 kts 319°
2026-05-06 20:03 50.03914 20.24509 5264 ft 237 kts 319°
2026-05-06 20:03 50.05195 20.22826 4820 ft 230 kts 319°
2026-05-06 20:04 50.06412 20.21244 4438 ft 222 kts 320°
2026-05-06 20:04 50.07616 20.19702 4132 ft 212 kts 320°
2026-05-06 20:04 50.08765 20.18353 4102 ft 204 kts 320°
2026-05-06 20:04 50.09972 20.17079 4117 ft 197 kts 320°
2026-05-06 20:05 50.11057 20.15960 4112 ft 172 kts 321°
2026-05-06 20:05 50.12053 20.14926 4122 ft 153 kts 313°
2026-05-06 20:05 50.12445 20.13532 3817 ft 140 kts 258°
2026-05-06 20:05 50.12272 20.12082 3454 ft 134 kts 256°
2026-05-06 20:06 50.12145 20.10683 3198 ft 120 kts 257°
2026-05-06 20:06 50.12022 20.09367 3124 ft 123 kts 253°
2026-05-06 20:06 50.11861 20.08081 3059 ft 121 kts 255°
2026-05-06 20:06 50.11672 20.06762 2864 ft 118 kts 253°
2026-05-06 20:07 50.11459 20.05459 2588 ft 122 kts 251°
2026-05-06 20:07 50.11218 20.04228 2371 ft 118 kts 251°
2026-05-06 20:07 50.11073 20.02940 2290 ft 119 kts 259°
2026-05-06 20:07 50.10983 20.01668 2331 ft 112 kts 257°
2026-05-06 20:08 50.10812 20.00409 2375 ft 114 kts 252°
2026-05-06 20:08 50.10599 19.99192 2579 ft 113 kts 256°
2026-05-06 20:08 50.10463 19.97891 2705 ft 129 kts 256°
2026-05-06 20:08 50.10331 19.96517 2768 ft 120 kts 256°
2026-05-06 20:09 50.10132 19.95264 2746 ft 120 kts 252°
2026-05-06 20:09 50.09911 19.94017 2630 ft 122 kts 250°
2026-05-06 20:09 50.09737 19.92703 2483 ft 120 kts 254°
2026-05-06 20:09 50.09531 19.91460 2323 ft 118 kts 251°
2026-05-06 20:10 50.09397 19.90185 2039 ft 120 kts 260°
2026-05-06 20:10 50.09271 19.88904 1761 ft 119 kts 254°
2026-05-06 20:10 50.09050 19.87652 1682 ft 117 kts 248°
2026-05-06 20:10 50.08878 19.86433 1683 ft 116 kts 258°
2026-05-06 20:11 50.08742 19.85102 1547 ft 119 kts 251°
2026-05-06 20:11 50.08504 19.83882 1323 ft 112 kts 253°
2026-05-06 20:11 50.08367 19.82633 1139 ft 118 kts 253°
2026-05-06 20:11 50.08177 19.81441 995 ft 113 kts 257°
2026-05-06 20:12 50.08015 19.80192 893 ft 121 kts 255°
2026-05-06 20:12 50.07839 19.78923 811 ft 117 kts 255°
2026-05-06 20:12 50.07650 19.77682 782 ft 111 kts 256°
2026-05-06 20:12 50.07565 19.76997 786 ft 31 kts 259°
2026-05-06 20:13 50.07496 19.76852 785 ft 8 kts 180°
2026-05-06 20:13 50.07440 19.76865 784 ft 8 kts 168°
2026-05-06 20:13 50.07382 19.76886 783 ft 8 kts 166°
2026-05-06 20:13 50.07326 19.76923 781 ft 8 kts 132°
2026-05-06 20:14 50.07316 19.77004 781 ft 7 kts 82°
2026-05-06 20:14 50.07325 19.77080 781 ft 7 kts 78°
2026-05-06 20:14 50.07339 19.77186 782 ft 12 kts 78°
2026-05-06 20:14 50.07362 19.77350 782 ft 18 kts 78°
2026-05-06 20:15 50.07393 19.77569 782 ft 22 kts 77°
2026-05-06 20:15 50.07428 19.77820 779 ft 25 kts 78°
2026-05-06 20:15 50.07465 19.78088 778 ft 25 kts 78°
2026-05-06 20:15 50.07502 19.78352 778 ft 24 kts 78°
2026-05-06 20:16 50.07538 19.78610 778 ft 23 kts 77°
2026-05-06 20:16 50.07572 19.78858 779 ft 22 kts 77°
2026-05-06 20:16 50.07602 19.79073 780 ft 18 kts 78°
2026-05-06 20:16 50.07629 19.79264 779 ft 18 kts 77°
2026-05-06 20:17 50.07655 19.79456 779 ft 17 kts 78°
2026-05-06 20:17 50.07682 19.79643 778 ft 17 kts 79°
2026-05-06 20:17 50.07706 19.79825 778 ft 16 kts 78°
2026-05-06 20:17 50.07732 19.80010 775 ft 18 kts 78°
2026-05-06 20:18 50.07756 19.80176 775 ft 11 kts 77°
2026-05-06 20:18 50.07771 19.80311 772 ft 12 kts 98°
2026-05-06 20:18 50.07711 19.80381 772 ft 10 kts 166°
2026-05-06 20:18 50.07643 19.80405 772 ft 9 kts 168°
2026-05-06 20:19 50.07581 19.80420 772 ft 8 kts 181°
2026-05-06 20:19 50.07527 19.80405 772 ft 7 kts 195°
2026-05-06 20:19 50.07483 19.80386 772 ft 6 kts 195°
2026-05-06 20:19 50.07448 19.80353 772 ft 4 kts 221°
2026-05-06 20:20 50.07429 19.80332 773 ft 1 kts 205°
2026-05-06 20:20 50.07415 19.80327 774 ft 3 kts 186°
2026-05-06 20:20 50.07381 19.80339 774 ft 2 kts 165°
2026-05-06 20:20 50.07366 19.80344 774 ft 0 kts 168°